Location: Dulzura
(32.6442°N, 116.7814°W)
Time: 15:13:00
(UTC+00:00)

Okean 3 Rocket - Pass Details

Date: 07 December 2021
Orbit: 614 x 646 km, 82.5° (Epoch: 20 January)

Event Time Altitude Azimuth Distance (km) Brightness Sun altitude
Rises 12:34:19 0° 186° (S) 2,933 7.1 -25.0°
Reaches altitude 10° 12:36:33 10° 187° (S) 2,031 6.2 -24.6°
Maximum altitude 12:41:04 85° 273° (W) 652 3.5 -23.7°
Drops below altitude 10° 12:45:38 10° 5° (N) 2,048 6.1 -22.7°
Sets 12:47:53 0° 6° (N) 2,961 7.0 -22.3°
